Date,TemperatureHighF,TemperatureAvgF,TemperatureLowF,DewpointHighF,DewpointAvgF,DewpointLowF,HumidityHigh,HumidityAvg,HumidityLow,PressureMaxIn,PressureMinIn,WindSpeedMaxMPH,WindSpeedAvgMPH,GustSpeedMaxMPH,PrecipitationSumIn
2013-1-10,46,43,40,44,39,-100,94,88,83,30.03,29.91,8,-15,16,0.11
2013-1-11,46,40,32,45,39,31,96,94,87,30.05,29.79,4,0,7,0.02
2013-1-12,46,44,41,44,40,33,94,85,73,30.07,29.77,10,4,14,0.01
2013-1-13,41,38,33,38,35,30,95,88,71,30.15,30.06,8,2,12,0.04
2013-1-14,44,40,36,41,37,34,93,88,77,30.09,29.87,9,4,17,0.08
2013-1-15,41,37,34,37,34,31,92,89,82,29.93,29.74,10,2,10,0.00
2013-1-16,43,41,40,41,38,36,93,88,81,29.87,29.73,4,1,10,0.20
2013-1-17,46,44,42,45,43,40,96,94,90,29.87,29.55,15,2,18,0.00
2013-1-18,42,38,36,40,37,36,97,96,89,29.55,29.24,19,5,23,0.42
2013-1-19,39,37,36,39,35,30,98,91,73,29.60,29.29,8,3,13,0.00
2013-1-20,39,38,37,32,31,29,81,75,68,29.59,29.39,11,4,16,0.00
2013-1-21,39,36,34,36,34,31,96,91,73,29.39,29.32,6,1,10,0.25
2013-1-22,37,33,29,35,32,28,96,94,90,29.75,29.38,2,0,4,0.01
2013-1-23,40,38,33,35,34,32,96,86,77,29.86,29.72,8,2,10,0.00
2013-1-24,43,40,37,39,36,33,90,86,80,30.00,29.86,7,1,14,0.00
2013-1-25,48,45,42,46,42,38,95,89,81,29.91,29.34,14,3,27,0.73
2013-1-26,56,47,39,51,42,35,90,84,76,29.72,28.97,17,4,35,0.01
2013-1-27,56,42,38,51,38,34,94,84,72,29.46,28.98,23,7,35,0.03
2013-1-28,54,47,39,47,39,34,90,76,67,29.55,29.09,23,7,45,0.00
2013-1-29,59,50,46,53,45,40,93,82,76,29.46,29.11,24,6,32,0.02
2013-1-30,50,46,43,44,40,36,86,78,64,29.81,29.33,27,7,30,0.02
2013-1-31,51,46,42,43,39,37,86,77,69,29.75,29.52,23,8,33,0.10
2013-2-1,46,43,38,42,37,32,90,80,76,29.90,29.41,15,6,24,0.00
2013-2-2,45,40,35,36,33,32,89,78,62,30.29,29.91,8,2,10,0.00
2013-2-3,52,49,42,48,46,37,95,90,78,30.18,29.84,15,6,23,0.06
2013-2-4,50,44,35,49,38,32,94,80,69,29.94,29.69,19,8,31,0.01
2013-2-5,46,39,34,40,34,30,90,83,76,29.75,29.43,22,7,28,0.00
2013-2-6,45,40,36,36,33,31,85,75,59,30.28,29.76,11,4,24,0.00
2013-2-7,45,38,34,43,36,31,94,90,83,30.28,29.90,10,3,17,0.20
2013-2-8,47,43,40,44,40,37,93,87,85,30.28,30.19,8,3,13,0.00
2013-2-9,51,46,43,46,43,41,94,90,80,30.21,29.70,10,3,11,0.11
2013-2-10,46,44,41,45,42,39,96,95,92,29.69,29.21,8,2,13,0.90
2013-2-11,42,40,39,41,38,36,96,91,82,29.84,29.26,10,2,12,0.12
2013-2-12,42,40,39,40,38,38,95,92,87,30.02,29.84,7,2,10,0.09
2013-2-13,55,48,42,51,46,40,93,90,83,30.00,29.67,11,2,16,0.30
2013-2-14,50,46,42,47,42,39,92,84,71,30.06,29.70,11,4,17,0.00
2013-2-15,51,44,40,42,39,37,93,81,62,30.15,30.06,8,2,10,0.00
2013-2-16,56,48,41,49,44,39,95,86,73,30.12,30.07,9,1,12,0.01
2013-2-17,50,46,44,43,42,36,89,83,73,30.07,29.97,9,3,18,0.00
2013-2-18,46,44,42,40,38,34,88,78,71,30.10,29.99,6,2,13,0.00
2013-2-19,46,41,33,40,37,32,94,85,78,30.10,30.04,11,2,11,0.00
2013-2-20,46,42,35,40,37,33,95,85,76,30.16,30.06,9,2,16,0.01
2013-2-21,40,38,37,34,30,27,77,72,68,30.19,30.16,11,3,16,0.00
2013-2-22,38,37,35,30,27,25,73,68,63,30.26,30.17,8,3,12,0.00
2013-2-23,38,37,35,33,30,25,87,75,61,30.35,30.25,8,2,10,0.00
2013-2-24,41,38,33,34,31,29,92,78,65,30.49,30.34,8,1,13,0.04
2013-2-25,44,39,33,36,33,30,91,81,66,30.59,30.47,8,2,10,0.01
2013-2-26,43,41,37,39,37,34,90,85,77,30.65,30.55,11,3,12,0.00
2013-2-27,44,42,40,39,37,36,88,84,78,30.67,30.60,10,2,12,0.00
2013-2-28,40,39,38,37,36,35,91,89,88,30.61,30.56,4,1,7,0.00
2013-7-24,72,68,64,62,61,59,90,77,66,29.81,29.77,6,2,15,0.04
2013-7-25,71,64,60,63,61,59,96,88,70,29.81,29.74,8,2,11,0.27
2013-7-26,69,65,59,63,59,56,89,82,67,29.83,29.78,9,2,12,1.28
2013-7-27,68,62,55,61,58,54,95,86,73,29.81,29.61,10,2,13,0.00
2013-7-28,70,63,56,63,58,54,95,86,64,29.60,29.53,7,1,12,0.93
2013-7-29,71,64,60,61,58,53,94,80,65,29.82,29.57,6,2,14,0.12
2013-7-30,72,65,57,58,53,51,82,67,50,29.87,29.77,16,3,18,0.02
2013-7-31,72,62,59,66,58,53,96,85,75,29.88,29.66,13,3,21,0.27
2013-8-1,74,68,64,65,63,62,92,84,72,29.69,29.52,10,3,18,0.04
2013-8-2,73,66,60,62,56,53,92,70,52,29.64,29.49,18,5,29,0.05
2013-8-3,71,62,58,56,53,51,85,74,51,29.90,29.64,10,4,19,0.13
2013-8-4,66,61,57,61,57,53,96,85,70,29.90,29.83,8,2,14,0.19
2013-8-5,68,62,58,59,54,47,96,77,50,29.96,29.77,10,2,15,0.02
2013-8-6,70,62,58,57,53,50,87,73,54,29.98,29.90,11,2,13,0.00
2013-8-7,68,61,56,56,54,52,89,77,59,30.00,29.91,6,1,10,0.00
2013-8-26,67,62,58,58,56,54,85,78,72,30.15,30.12,4,1,6,0.00
2013-8-27,68,62,58,61,58,54,95,86,76,30.24,30.11,8,1,11,0.02
2013-8-28,70,61,55,59,53,48,88,74,56,30.26,30.13,5,1,12,0.00
2013-8-29,73,66,59,60,58,55,86,76,62,30.15,30.06,7,3,15,0.00
2013-8-30,71,63,54,61,56,47,86,77,64,30.25,29.96,13,4,23,0.01
2013-8-31,64,57,50,49,47,43,79,68,54,30.45,30.25,9,3,16,0.00
2013-9-1,65,57,53,52,45,-100,82,70,61,30.45,30.33,13,-28,23,0.00
2013-9-2,72,64,59,62,57,50,88,80,70,30.34,30.28,14,5,21,0.00
2013-9-16,53,48,50,44,36,-100,77,70,69,29.65,0.00,10,-41,17,0.00
2013-9-17,52,47,49,50,38,-100,96,82,71,29.64,29.38,12,-62,15,0.42
2013-9-18,58,49,48,49,37,-100,96,75,62,29.88,29.49,11,-60,18,0.42
2013-9-19,51,51,51,45,44,44,78,78,77,29.88,29.85,3,1,4,0.00
2013-10-11,56,55,53,50,49,47,83,80,76,30.40,30.37,17,6,18,0.00
2013-10-12,56,45,52,52,24,-100,89,69,77,30.37,30.17,12,-165,14,0.00
2013-10-13,55,43,51,52,20,-100,91,67,71,30.18,29.97,8,-186,10,0.00
2013-10-14,55,47,48,50,30,-100,92,71,70,29.97,29.88,12,-112,14,0.00
2013-10-15,57,45,44,52,27,-100,94,74,75,29.91,29.86,8,-126,13,0.00
2013-10-16,57,43,51,53,21,-100,95,71,82,29.86,29.53,8,-198,14,0.63
2013-10-17,64,48,50,54,30,-100,94,72,69,29.89,29.72,5,-146,11,0.63
2013-10-18,58,47,54,56,29,-100,96,78,90,29.89,29.47,9,-164,22,0.31
2013-10-19,63,45,54,57,20,-100,96,68,74,29.47,29.42,8,-217,28,0.11
2013-10-20,62,50,52,54,33,-100,95,73,69,29.54,29.29,10,-122,19,0.13
2013-10-21,64,47,49,60,27,-100,98,76,82,29.55,29.21,10,-177,20,0.20
2013-10-22,65,60,56,58,55,53,93,84,70,29.23,29.03,11,2,21,0.09
2013-10-23,59,53,46,54,46,41,92,79,60,29.75,29.03,14,4,20,0.00
2013-10-24,59,52,43,55,49,41,95,90,85,29.84,29.63,8,2,12,0.16
2013-10-25,61,58,55,56,55,54,97,91,81,29.62,29.34,16,3,21,0.46
2013-10-26,59,54,52,54,49,46,92,83,69,29.51,29.21,13,3,25,0.12
2013-10-27,58,54,51,50,48,44,88,80,71,29.20,29.04,18,5,27,0.08
2013-10-28,55,51,47,47,45,42,91,82,64,29.57,29.00,14,4,18,0.01
2013-10-29,53,47,42,45,42,38,89,82,69,30.01,29.58,12,3,16,0.03
2013-10-30,49,44,42,43,41,39,92,89,80,30.02,29.95,3,1,7,0.00
2013-11-4,50,46,37,42,39,35,90,78,70,29.44,29.29,6,2,12,0.00
2013-11-5,51,48,46,47,44,40,95,84,75,29.42,29.19,14,4,23,0.10
2013-11-6,50,47,43,47,44,40,94,88,84,29.55,29.34,6,2,13,0.06
2013-11-7,52,47,42,43,40,38,88,78,66,29.62,29.54,16,4,26,0.00
2013-11-8,51,45,41,42,39,36,85,79,68,29.65,29.57,9,3,14,0.01
2013-11-9,48,44,39,41,39,36,91,83,76,29.73,29.58,11,3,14,0.02
2013-11-10,53,44,38,50,40,36,94,86,66,30.09,29.74,9,2,15,0.23
2013-11-11,58,55,51,56,52,47,95,88,77,30.18,29.87,10,3,19,0.00
2013-11-12,52,49,44,47,43,40,92,80,67,30.48,30.18,8,2,16,0.00